Location: Bothwell
(42.3833°S, 147.0000°E)
Time: 21:47:10
(UTC+11:00)

OBJECT D - Visible Passes

Search period start: 09 October 2024 00:00
Search period end: 19 October 2024 00:00
Orbit: 452 x 564 km, 63.5° (Epoch: 09 October)

Date Brightness Start Highest point End Pass type
(mag) Time Alt. Az. Time Alt. Az. Time Alt. Az.
09 Oct ? 03:53:35 35° SSE 03:53:35 35° SSE 03:56:03 10° SSE visible
09 Oct ? 05:29:39 10° SW 05:30:28 10° SSW 05:31:18 10° SSW visible
10 Oct ? 03:35:56 27° SSE 03:35:56 27° SSE 03:37:53 10° SSE visible
10 Oct ? 05:11:20 10° SW 05:12:16 11° SW 05:13:12 10° SSW visible
11 Oct ? 03:18:03 22° SSE 03:18:03 22° SSE 03:19:31 10° SSE visible
11 Oct ? 04:52:51 10° SW 04:53:53 11° SW 04:54:55 10° SSW visible
12 Oct ? 02:59:58 17° SSE 02:59:58 17° SSE 03:00:59 10° SSE visible
12 Oct ? 04:34:45 11° SW 04:35:19 11° SW 04:36:27 10° SSW visible
13 Oct ? 02:41:39 14° SSE 02:41:39 14° SSE 02:42:16 10° SSE visible
13 Oct ? 04:16:25 11° SW 04:16:34 11° SW 04:17:49 10° SSW visible
14 Oct ? 02:23:08 11° SSE 02:23:08 11° SSE 02:23:21 10° SSE visible
14 Oct ? 03:57:53 11° SSW 03:57:53 11° SSW 03:59:00 10° SSW visible
15 Oct ? 03:39:08 11° SSW 03:39:08 11° SSW 03:40:00 10° SSW visible
16 Oct ? 03:20:10 11° SSW 03:20:10 11° SSW 03:20:48 10° S visible
17 Oct ? 03:00:59 11° SSW 03:00:59 11° SSW 03:01:26 10° S visible
18 Oct ? 02:41:36 11° SSW 02:41:36 11° SSW 02:41:52 10° S visible
